Weather History for Harrison, AR

Change the Weather History Date:

Tuesday, April 16, 2013

  Actual Average Record
Temperature  
Mean Temperature 69 °F 58 °F  
Max Temperature 83 °F 70 °F 90 °F (1955)
Min Temperature 54 °F 47 °F 24 °F (1923)
Degree Days  
Heating Degree Days 0 8  
Month to date heating degree days 150 156  
Since 1 July heating degree days 3703 3836  
Cooling Degree Days 4 1  
Month to date cooling degree days 14 16  
Year to date cooling degree days 21 22  
Growing Degree Days 18 (Base 50)    
Moisture  
Dew Point 56 °F    
Average Humidity 74    
Maximum Humidity 100    
Minimum Humidity 47    
Precipitation  
Precipitation 0.00 in 0.14 in 2.04 in (1939)
Month to date precipitation 0.86 2.08  
Year to date precipitation 10.08 11.07  
Snow  
Snow 0.00 in 0.00 in - ()
Month to date snowfall T 0.3  
Since 1 July snowfall 4.6 11.5  
Snow Depth 0.00 in    
Sea Level Pressure  
Sea Level Pressure 29.93 in    
Wind  
Wind Speed 4 mph (NNW)    
Max Wind Speed 14 mph    
Max Gust Speed 17 mph    
Visibility 7 miles    
Events Fog    
T = Trace of Precipitation, MM = Missing Value Source: NWS Daily Summary

Daily Weather History Graph

Daily Weather History Graph

Search for Another Location

Airport:

Trip Planner

Search our weather history database for the weather conditions in past years. The results will help you decide how hot, cold, wet, or windy it might be!

Date:

Astronomy

Apr. 16, 2013 Rise Set
Actual Time 6:37 AM CDT 7:47 PM CDT
Civil Twilight 6:10 AM CDT 8:14 PM CDT
Nautical Twilight 5:39 AM CDT 8:46 PM CDT
Astronomical Twilight 5:06 AM CDT 9:19 PM CDT
Moon 11:01 AM CDT (4/16) 12:40 AM CDT (4/16)
Length of Visible Light 14h 03m
Length of Day
13h 10m
Waxing Crescent, 33% of the Moon is Illuminated
Apr 16
Waxing Crescent
Apr 18
First Quarter
Apr 25
Full
May 2
Last Quarter
May 9
New

Hourly Weather History & Observations

Time (CDT) Temp. Heat Index Dew Point Humidity Pressure Visibility Wind Dir Wind Speed Gust Speed Precip Events Conditions
12:53 AM 61.0 °F - 59.0 °F 93% 29.82 in 10.0 mi Calm Calm - N/A   Clear
1:53 AM 61.0 °F - 57.9 °F 90% 29.84 in 9.0 mi Calm Calm - N/A   Clear
2:53 AM 60.1 °F - 59.0 °F 96% 29.85 in 8.0 mi NW 4.6 mph - N/A   Clear
3:53 AM 55.9 °F - 55.0 °F 97% 29.86 in 9.0 mi NNW 3.5 mph - N/A   Clear
4:31 AM 55.4 °F - 53.6 °F 94% 29.89 in 10.0 mi NNW 9.2 mph - N/A   Scattered Clouds
4:43 AM 55.4 °F - 53.6 °F 94% 29.90 in 10.0 mi NW 5.8 mph - N/A   Mostly Cloudy
4:53 AM 54.0 °F - 52.0 °F 93% 29.87 in 10.0 mi NW 5.8 mph - N/A   Overcast
5:36 AM 53.6 °F - 53.6 °F 100% 29.91 in 6.0 mi NW 3.5 mph - N/A   Overcast
5:53 AM 54.0 °F - 53.1 °F 97% 29.89 in 4.0 mi Calm Calm - N/A   Overcast
6:24 AM 53.6 °F - 53.6 °F 100% 29.92 in 3.0 mi Calm Calm - N/A   Overcast
6:48 AM 53.6 °F - 53.6 °F 100% 29.94 in 1.8 mi Calm Calm - N/A   Overcast
6:53 AM 53.6 °F - 53.6 °F 100% 29.94 in 0.8 mi Calm Calm - N/A   Overcast
6:58 AM 53.6 °F - 53.6 °F 100% 29.94 in 0.2 mi Calm Calm - N/A Fog Fog
7:48 AM 53.6 °F - 53.6 °F 100% 29.96 in 0.5 mi Calm Calm - N/A Fog Fog
7:53 AM 54.0 °F - 54.0 °F 100% 29.94 in 0.5 mi Calm Calm - N/A Fog Fog
7:59 AM 55.4 °F - 53.6 °F 94% 29.96 in 1.0 mi Calm Calm - N/A   Overcast
8:08 AM 55.4 °F - 53.6 °F 94% 29.97 in 0.8 mi Calm Calm - N/A   Overcast
8:15 AM 55.4 °F - 53.6 °F 94% 29.97 in 1.5 mi North 3.5 mph - N/A   Overcast
8:25 AM 55.4 °F - 55.4 °F 100% 29.97 in 2.0 mi North 3.5 mph - N/A   Overcast
8:40 AM 55.4 °F - 55.4 °F 100% 29.97 in 3.0 mi NNW 4.6 mph - N/A   Overcast
8:53 AM 55.9 °F - 55.0 °F 97% 29.96 in 3.0 mi Variable 3.5 mph - N/A   Overcast
9:26 AM 57.2 °F - 55.4 °F 94% 29.99 in 6.0 mi North 3.5 mph - N/A   Overcast
9:53 AM 60.1 °F - 55.9 °F 86% 29.97 in 8.0 mi NW 4.6 mph - N/A   Overcast
10:07 AM 62.6 °F - 57.2 °F 82% 30.00 in 9.0 mi Variable 3.5 mph - N/A   Overcast
10:36 AM 64.4 °F - 57.2 °F 77% 30.00 in 10.0 mi Calm Calm - N/A   Overcast
10:53 AM 66.0 °F - 57.9 °F 75% 29.97 in 10.0 mi NNW 3.5 mph - N/A   Mostly Cloudy
11:53 AM 69.1 °F - 57.9 °F 68% 29.98 in 10.0 mi NNW 6.9 mph - N/A   Mostly Cloudy
12:53 PM 72.0 °F - 59.0 °F 64% 29.96 in 10.0 mi North 6.9 mph - N/A   Mostly Cloudy
1:53 PM 77.0 °F - 61.0 °F 58% 29.94 in 10.0 mi Variable 3.5 mph - N/A   Partly Cloudy
2:53 PM 81.0 °F 81.6 °F 60.1 °F 49% 29.91 in 10.0 mi Variable 5.8 mph - N/A   Mostly Cloudy
3:53 PM 79.0 °F - 61.0 °F 54% 29.91 in 10.0 mi NNE 5.8 mph - N/A   Mostly Cloudy
4:53 PM 80.1 °F 81.1 °F 61.0 °F 52% 29.91 in 10.0 mi NNE 3.5 mph - N/A   Mostly Cloudy
5:53 PM 82.0 °F 82.4 °F 60.1 °F 47% 29.90 in 10.0 mi South 12.7 mph - N/A   Partly Cloudy
6:53 PM 81.0 °F 81.3 °F 59.0 °F 47% 29.91 in 9.0 mi SSE 11.5 mph - N/A   Scattered Clouds
7:53 PM 77.0 °F - 59.0 °F 54% 29.94 in 7.0 mi SSE 6.9 mph - N/A   Partly Cloudy
8:53 PM 72.0 °F - 60.1 °F 66% 29.95 in 9.0 mi North 3.5 mph - N/A   Clear
9:53 PM 66.9 °F - 60.1 °F 79% 29.97 in 10.0 mi NNW 6.9 mph - N/A   Mostly Cloudy
10:53 PM 64.0 °F - 57.0 °F 78% 29.97 in 10.0 mi North 5.8 mph - N/A   Partly Cloudy
11:53 PM 61.0 °F - 55.0 °F 81% 29.97 in 10.0 mi Calm Calm - N/A   Scattered Clouds